| time (UTC) | temp F | wind direction | speed MPH | gust MPH | rain 1hr in | rain 24hr in | rain mn in | humidity % | barometer mb |
| 20260905184535 | -90 | 270 | 2.0 | 2.0 | 0.00 | 0.00 | 0.00 | 16 | 5318.5 |
| 20260905184329 | 32 | 270 | 1.0 | 2.0 | 0.00 | 0.00 | 0.00 | 16 | 5318.5 |
| 20260905184127 | 715 | 270 | 1.0 | 2.0 | 0.00 | 0.00 | 0.00 | 16 | 1799.4 |
| 20260905183927 | 584 | 270 | 1.0 | 1.0 | 0.00 | 0.00 | 0.00 | 15 | 5318.5 |
| 20260905183724 | 715 | 270 | 1.0 | 1.0 | 0.00 | 0.00 | 0.00 | 15 | 1799.4 |
| 20260905183117 | 168 | 270 | 2.0 | 4.0 | 0.00 | 0.00 | 0.00 | 14 | 5318.5 |
| 20260905182915 | 262 | 270 | 1.0 | 4.0 | 0.00 | 0.00 | 0.00 | 14 | 5318.5 |
| 20260905182511 | 318 | 270 | 1.0 | 3.0 | 0.00 | 0.00 | 0.00 | 13 | 5318.5 |
| 20260905181904 | 715 | 270 | 4.0 | 6.0 | 0.00 | 0.00 | 0.00 | 13 | 1799.3 |
| 20260905181703 | -22 | 270 | 3.0 | 6.0 | 0.00 | 0.00 | 0.00 | 13 | 5318.5 |
| 20260905181500 | -26 | 270 | 4.0 | 6.0 | 0.00 | 0.00 | 0.00 | 12 | 5318.5 |
| 20260905181258 | -17 | 270 | 5.0 | 6.0 | 0.00 | 0.00 | 0.00 | 12 | 5318.5 |
| 20260905181056 | 715 | 270 | 5.0 | 6.0 | 0.00 | 0.00 | 0.00 | 11 | 4480.2 |
| 20260905180249 | 715 | 270 | 5.0 | 7.0 | 0.00 | 0.00 | 0.00 | 11 | 1799.3 |
| 20260905180046 | 715 | 270 | 4.0 | 7.0 | 0.00 | 0.00 | 0.00 | 10 | 4420.8 |
| 20260905175642 | 492 | 270 | 6.0 | 7.0 | 0.00 | 0.00 | 0.00 | 10 | 5318.5 |
| 20260905175440 | 715 | 270 | 6.0 | 7.0 | 0.00 | 0.00 | 0.00 | 10 | 1799.4 |
| 20260905173419 | -23 | 270 | 7.0 | 7.0 | 0.00 | 0.00 | 0.00 | 8 | 5318.5 |
| 20260905172611 | -12 | 270 | 4.0 | 6.0 | 0.00 | 0.00 | 0.00 | 8 | 5318.5 |
| 20260905172408 | -16 | 270 | 4.0 | 5.0 | 0.00 | 0.00 | 0.00 | 7 | 5318.5 |
| 20260905172210 | 715 | 270 | 4.0 | 7.0 | 0.00 | 0.00 | 0.00 | 7 | 1799.4 |
| 20260905172004 | -10 | 270 | 6.0 | 7.0 | 0.00 | 0.00 | 0.00 | 7 | 5318.5 |
| 20260905171601 | 715 | 270 | 5.0 | 7.0 | 0.00 | 0.00 | 0.00 | 6 | 4420.8 |
| 20260905171227 | 715 | 270 | 3.0 | 7.0 | 0.00 | 0.00 | 0.00 | 6 | 1799.3 |
| 20260905171156 | 715 | 270 | 3.0 | 7.0 | 0.00 | 0.00 | 0.00 | 6 | 1799.3 |
| 20260905170954 | 715 | 270 | 6.0 | 6.0 | 0.00 | 0.00 | 0.00 | 6 | 488.7 |
| 20260905170146 | 715 | 270 | 5.0 | 7.0 | 0.00 | 0.00 | 0.00 | 5 | 1799.4 |
| 20260905165738 | 247 | 270 | 6.0 | 7.0 | 0.00 | 0.00 | 0.00 | 4 | 5318.5 |
| 20260905165132 | -25 | 270 | 5.0 | 6.0 | 0.00 | 0.00 | 0.00 | 4 | 5318.5 |
| 20260905164931 | -29 | 270 | 4.0 | 6.0 | 0.00 | 0.00 | 0.00 | 4 | 5318.5 |
| 20260905164324 | -14 | 270 | 4.0 | 7.0 | 0.00 | 0.00 | 0.00 | 4 | 5318.5 |
| 20260905163920 | -93 | 270 | 4.0 | 6.0 | 0.00 | 0.00 | 0.00 | 4 | 5318.5 |
| 20260905163112 | 170 | 270 | 6.0 | 7.0 | 0.00 | 0.00 | 0.00 | 4 | 403.3 |
| 20260905162910 | 111 | 270 | 5.0 | 6.0 | 0.00 | 0.00 | 0.00 | 4 | 5318.5 |
| 20260905161901 | 182 | 270 | 3.0 | 8.0 | 0.00 | 0.00 | 0.00 | 4 | 5318.5 |
| 20260905161456 | 237 | 270 | 6.0 | 8.0 | 0.00 | 0.00 | 0.00 | 4 | 5318.5 |
| 20260905161258 | -32 | 270 | 4.0 | 7.0 | 0.00 | 0.00 | 0.00 | 4 | 5320.2 |
| 20260905161055 | 293 | 270 | 6.0 | 6.0 | 0.00 | 0.00 | 0.00 | 4 | 5318.5 |
| 20260905160647 | -30 | 270 | 4.0 | 8.0 | 0.00 | 0.00 | 0.00 | 4 | 5318.5 |
| 20260905160445 | 715 | 270 | 6.0 | 7.0 | 0.00 | 0.00 | 0.00 | 5 | 1799.3 |
| 20260905160245 | -25 | 270 | 6.0 | 6.0 | 0.00 | 0.00 | 0.00 | 5 | 5318.5 |
| 20260905160042 | 715 | 270 | 4.0 | 6.0 | 0.00 | 0.00 | 0.00 | 5 | 1799.4 |
| 20260905155636 | 715 | 270 | 2.0 | 5.0 | 0.00 | 0.00 | 0.00 | 5 | 1799.4 |
| 20260905154629 | 715 | 270 | 5.0 | 8.0 | 0.00 | 0.00 | 0.00 | 4 | 1799.4 |
| 20260905154427 | 630 | 270 | 5.0 | 8.0 | 0.00 | 0.00 | 0.00 | 4 | 5318.5 |
| 20260905153418 | 267 | 270 | 2.0 | 7.0 | 0.00 | 0.00 | 0.00 | 4 | 5318.5 |
| 20260905153212 | 228 | 270 | 2.0 | 7.0 | 0.00 | 0.00 | 0.00 | 5 | 5318.5 |
| 20260905152807 | 283 | 270 | 5.0 | 7.0 | 0.00 | 0.00 | 0.00 | 5 | 5318.5 |
| 20260905152605 | -27 | 270 | 7.0 | 7.0 | 0.00 | 0.00 | 0.00 | 5 | 5318.5 |
| 20260905152201 | -22 | 270 | 4.0 | 8.0 | 0.00 | 0.00 | 0.00 | 5 | 5318.5 |
| 20260905152001 | 715 | 270 | 7.0 | 8.0 | 0.00 | 0.00 | 0.00 | 5 | 4480.2 |
| 20260905151801 | 49 | 270 | 4.0 | 6.0 | 0.00 | 0.00 | 0.00 | 5 | 5318.5 |
| 20260905151555 | 715 | 270 | 6.0 | 6.0 | 0.00 | 0.00 | 0.00 | 5 | 1799.3 |
| 20260905151153 | 715 | 270 | 4.0 | 8.0 | 0.00 | 0.00 | 0.00 | 4 | 4420.7 |
| 20260905150343 | 927 | 270 | 1.0 | 7.0 | 0.00 | 0.00 | 0.00 | 5 | 5318.5 |
| 20260905150140 | -31 | 270 | 6.0 | 7.0 | 0.00 | 0.00 | 0.00 | 5 | 5318.5 |
| 20260905145939 | 714 | 270 | 5.0 | 7.0 | 0.00 | 0.00 | 0.00 | 5 | 4420.7 |
| 20260905145738 | 715 | 270 | 6.0 | 7.0 | 0.00 | 0.00 | 0.00 | 5 | 1799.4 |
| 20260905145534 | 203 | 270 | 4.0 | 4.0 | 0.00 | 0.00 | 0.00 | 5 | 5318.5 |
| 20260905144730 | 715 | 270 | 0.0 | 7.0 | 0.00 | 0.00 | 0.00 | 5 | 1799.4 |
| 20260905144322 | 715 | 270 | 5.0 | 8.0 | 0.00 | 0.00 | 0.00 | 6 | 1799.4 |
| 20260905144120 | -32 | 270 | 5.0 | 9.0 | 0.00 | 0.00 | 0.00 | 6 | 5318.5 |
| 20260905143109 | -12 | 270 | 4.0 | 7.0 | 0.00 | 0.00 | 0.00 | 6 | 5318.5 |
| 20260905141251 | 193 | 270 | 6.0 | 8.0 | 0.00 | 0.00 | 0.00 | 6 | 5318.5 |
| 20260905140448 | 304 | 270 | 8.0 | 8.0 | 0.00 | 0.00 | 0.00 | 7 | 5318.5 |
| 20260905140038 | -29 | 270 | 5.0 | 7.0 | 0.00 | 0.00 | 0.00 | 7 | 5318.5 |
| 20260905135030 | -22 | 270 | 10.0 | 10.0 | 0.00 | 0.00 | 0.00 | 7 | 5318.5 |
| 20260905134826 | -13 | 270 | 9.0 | 10.0 | 0.00 | 0.00 | 0.00 | 6 | 5318.5 |
| 20260905134629 | 715 | 270 | 9.0 | 12.0 | 0.00 | 0.00 | 0.00 | 7 | 1799.4 |
| 20260905134222 | -11 | 270 | 7.0 | 11.0 | 0.00 | 0.00 | 0.00 | 8 | 5318.5 |
| 20260905133817 | 743 | 270 | 5.0 | 11.0 | 0.00 | 0.00 | 0.00 | 7 | 5318.5 |
| 20260905133646 | 239 | 270 | 6.0 | 10.0 | 0.00 | 0.00 | 0.00 | 9 | 5318.5 |
| 20260905133613 | 354 | 270 | 9.0 | 11.0 | 0.00 | 0.00 | 0.00 | 8 | 5318.5 |
| 20260905133414 | 129 | 270 | 7.0 | 11.0 | 0.00 | 0.00 | 0.00 | 7 | 5318.5 |
| 20260905133210 | 906 | 270 | 4.0 | 9.0 | 0.00 | 0.00 | 0.00 | 8 | 5318.5 |
| 20260905132603 | 239 | 270 | 6.0 | 10.0 | 0.00 | 0.00 | 0.00 | 9 | 5318.5 |
| 20260905132404 | 201 | 270 | 7.0 | 10.0 | 0.00 | 0.00 | 0.00 | 8 | 5318.5 |
| 20260905132002 | 256 | 270 | 6.0 | 7.0 | 0.00 | 0.00 | 0.00 | 8 | 5318.5 |
| 20260905131553 | 311 | 270 | 3.0 | 9.0 | 0.00 | 0.00 | 0.00 | 9 | 5318.5 |
| 20260905131150 | -28 | 270 | 7.0 | 11.0 | 0.00 | 0.00 | 0.00 | 8 | 5318.5 |
| 20260905130954 | 32 | 270 | 9.0 | 11.0 | 0.00 | 0.00 | 0.00 | 8 | 5320.2 |
| 20260905125939 | -12 | 270 | 6.0 | 10.0 | 0.00 | 0.00 | 0.00 | 9 | 5318.5 |
| 20260905125330 | 715 | 270 | 5.0 | 7.0 | 0.00 | 0.00 | 0.00 | 9 | 1799.4 |
| 20260905124928 | 814 | 270 | 6.0 | 8.0 | 0.00 | 0.00 | 0.00 | 10 | 5318.5 |
| 20260905124732 | 714 | 270 | 7.0 | 8.0 | 0.00 | 0.00 | 0.00 | 10 | 4420.7 |
| 20260905121531 | 145 | 270 | 4.0 | 7.0 | 0.00 | 0.00 | 0.00 | 12 | 5318.5 |
| 20260905115308 | -13 | 270 | 6.0 | 9.0 | 0.00 | 0.00 | 0.00 | 12 | 5318.5 |
| 20260905115107 | -17 | 270 | 5.0 | 9.0 | 0.00 | 0.00 | 0.00 | 13 | 5318.5 |
| 20260905114258 | -67 | 270 | 4.0 | 9.0 | 0.00 | 0.00 | 0.00 | 13 | 5318.5 |
| 20260905114057 | 262 | 270 | 7.0 | 9.0 | 0.00 | 0.00 | 0.00 | 13 | 5318.5 |
| 20260905113651 | -31 | 270 | 5.0 | 11.0 | 0.00 | 0.00 | 0.00 | 13 | 5318.5 |
| 20260905113450 | 175 | 270 | 11.0 | 11.0 | 0.00 | 0.00 | 0.00 | 13 | 5318.5 |
| 20260905113046 | 715 | 270 | 9.0 | 9.0 | 0.00 | 0.00 | 0.00 | 13 | 1799.3 |
| 20260905112641 | 32 | 270 | 6.0 | 6.0 | 0.00 | 0.00 | 0.00 | 13 | 5318.5 |
| 20260905112439 | 247 | 270 | 4.0 | 9.0 | 0.00 | 0.00 | 0.00 | 13 | 5318.5 |
| 20260905111227 | -24 | 270 | 5.0 | 8.0 | 0.00 | 0.00 | 0.00 | 13 | 5318.5 |
| 20260905110824 | -18 | 270 | 7.0 | 7.0 | 0.00 | 0.00 | 0.00 | 13 | 5318.5 |
| 20260905105610 | 111 | 270 | 8.0 | 9.0 | 0.00 | 0.00 | 0.00 | 12 | 5318.5 |
| 20260905105206 | 715 | 270 | 5.0 | 12.0 | 0.00 | 0.00 | 0.00 | 12 | 1799.3 |
| 20260905103752 | 293 | 270 | 11.0 | 13.0 | 0.00 | 0.00 | 0.00 | 11 | 5318.5 |
| 20260905102337 | -10 | 270 | 8.0 | 10.0 | 0.00 | 0.00 | 0.00 | 12 | 5318.5 |
| 20260905101933 | 715 | 270 | 10.0 | 10.0 | 0.00 | 0.00 | 0.00 | 13 | 1799.4 |
| 20260905101329 | 49 | 270 | 5.0 | 7.0 | 0.00 | 0.00 | 0.00 | 13 | 5318.5 |
| 20260905100522 | 212 | 270 | 5.0 | 7.0 | 0.00 | 0.00 | 0.00 | 14 | 5318.5 |
| 20260905100316 | 173 | 270 | 3.0 | 8.0 | 0.00 | 0.00 | 0.00 | 14 | 403.4 |
| 20260905094659 | 715 | 270 | 5.0 | 6.0 | 0.00 | 0.00 | 0.00 | 17 | 4420.8 |
| 20260905094255 | 715 | 270 | 2.0 | 4.0 | 0.00 | 0.00 | 0.00 | 18 | 1799.3 |
| 20260905093648 | -56 | 270 | 2.0 | 4.0 | 0.00 | 0.00 | 0.00 | 18 | 403.3 |
| 20260905093243 | -14 | 270 | 4.0 | 4.0 | 0.00 | 0.00 | 0.00 | 18 | 5318.5 |
| 20260905092437 | 32 | 270 | 1.0 | 2.0 | 0.00 | 0.00 | 0.00 | 19 | 5320.2 |
| 20260905092035 | 164 | 270 | 0.0 | 3.0 | 0.00 | 0.00 | 0.00 | 20 | 5318.5 |
| 20260905091629 | 715 | 270 | 4.0 | 4.0 | 0.00 | 0.00 | 0.00 | 20 | 1799.3 |
| 20260905091439 | 313 | 270 | 2.0 | 4.0 | 0.00 | 0.00 | 0.00 | 20 | 5318.5 |
| 20260905090214 | 715 | 270 | 5.0 | 7.0 | 0.00 | 0.00 | 0.00 | 20 | 1799.4 |
| 20260905085609 | -15 | 270 | 5.0 | 6.0 | 0.00 | 0.00 | 0.00 | 21 | 5318.5 |
| 20260905085406 | -65 | 270 | 4.0 | 4.0 | 0.00 | 0.00 | 0.00 | 21 | 1714.1 |
| 20260905085204 | 714 | 270 | 2.0 | 2.0 | 0.00 | 0.00 | 0.00 | 21 | 4420.8 |
| 20260905084556 | 446 | 270 | 1.0 | 3.0 | 0.00 | 0.00 | 0.00 | 22 | 5318.5 |
| 20260905084404 | 138 | 270 | 3.0 | 4.0 | 0.00 | 0.00 | 0.00 | 21 | 5318.5 |
| 20260905084153 | 998 | 270 | 3.0 | 5.0 | 0.00 | 0.00 | 0.00 | 21 | 5318.5 |
| 20260905083548 | 249 | 270 | 6.0 | 9.0 | 0.00 | 0.00 | 0.00 | 20 | 5318.5 |
| 20260905082135 | -27 | 270 | 4.0 | 6.0 | 0.00 | 0.00 | 0.00 | 21 | 5318.5 |
| 20260905081931 | -18 | 270 | 6.0 | 6.0 | 0.00 | 0.00 | 0.00 | 21 | 5318.5 |
| 20260905081729 | -22 | 270 | 3.0 | 6.0 | 0.00 | 0.00 | 0.00 | 21 | 5318.5 |
| 20260905081531 | -13 | 270 | 5.0 | 6.0 | 0.00 | 0.00 | 0.00 | 21 | 403.4 |
| 20260905081325 | 715 | 270 | 5.0 | 6.0 | 0.00 | 0.00 | 0.00 | 21 | 1799.3 |
| 20260905080720 | -19 | 270 | 4.0 | 6.0 | 0.00 | 0.00 | 0.00 | 22 | 5318.5 |
| 20260905075915 | 906 | 270 | 4.0 | 6.0 | 0.00 | 0.00 | 0.00 | 22 | 5318.5 |
| 20260905075306 | 715 | 270 | 2.0 | 4.0 | 0.00 | 0.00 | 0.00 | 23 | 1799.4 |
| 20260905075101 | 715 | 270 | 4.0 | 4.0 | 0.00 | 0.00 | 0.00 | 23 | 488.7 |
| 20260905074455 | -30 | 270 | 3.0 | 4.0 | 0.00 | 0.00 | 0.00 | 25 | 5318.5 |
| 20260905074253 | 311 | 270 | 3.0 | 4.0 | 0.00 | 0.00 | 0.00 | 25 | 5318.5 |
| 20260905073045 | 715 | 270 | 1.0 | 1.0 | 0.00 | 0.00 | 0.00 | 27 | 1799.4 |
| 20260905072435 | -29 | 270 | 2.0 | 2.0 | 0.00 | 0.00 | 0.00 | 27 | 5318.5 |
| 20260905072036 | 715 | 270 | 0.0 | 2.0 | 0.00 | 0.00 | 0.00 | 29 | 1799.4 |
| 20260905070009 | 302 | 270 | 1.0 | 4.0 | 0.00 | 0.00 | 0.00 | 29 | 5318.5 |
| 20260905065607 | -29 | 270 | 1.0 | 4.0 | 0.00 | 0.00 | 0.00 | 29 | 5318.5 |
| 20260905065002 | -14 | 270 | 1.0 | 5.0 | 0.00 | 0.00 | 0.00 | 30 | 403.3 |
| 20260905064556 | -93 | 270 | 5.0 | 5.0 | 0.00 | 0.00 | 0.00 | 30 | 5318.5 |
| 20260905064152 | -38 | 270 | 2.0 | 4.0 | 0.00 | 0.00 | 0.00 | 31 | 5318.5 |
| 20260905063546 | 111 | 270 | 3.0 | 5.0 | 0.00 | 0.00 | 0.00 | 31 | 5318.5 |
| 20260905062538 | 182 | 270 | 1.0 | 4.0 | 0.00 | 0.00 | 0.00 | 32 | 5318.5 |
| 20260905061929 | 265 | 270 | 3.0 | 6.0 | 0.00 | 0.00 | 0.00 | 32 | 5318.5 |
| 20260905061121 | -27 | 270 | 0.0 | 3.0 | 0.00 | 0.00 | 0.00 | 33 | 5318.5 |
| 20260905060111 | -75 | 270 | 5.0 | 5.0 | 0.00 | 0.00 | 0.00 | 33 | 5318.5 |
| 20260905055059 | 129 | 270 | 5.0 | 5.0 | 0.00 | 0.00 | 0.00 | 32 | 5318.5 |
| 20260905054857 | 906 | 270 | 2.0 | 4.0 | 0.00 | 0.00 | 0.00 | 33 | 5318.5 |
| 20260905054657 | -31 | 270 | 2.0 | 5.0 | 0.00 | 0.00 | 0.00 | 32 | 5318.5 |
| 20260905054251 | 239 | 270 | 1.0 | 4.0 | 0.00 | 0.00 | 0.00 | 32 | 5318.5 |
| 20260905053241 | 311 | 270 | 2.0 | 4.0 | 0.00 | 0.00 | 0.00 | 31 | 5318.5 |
| 20260905052633 | 49 | 270 | 2.0 | 4.0 | 0.00 | 0.00 | 0.00 | 32 | 5318.5 |
| 20260905050413 | 175 | 270 | 3.0 | 3.0 | 0.00 | 0.00 | 0.00 | 32 | 5318.5 |
| 20260905045604 | 285 | 270 | 3.0 | 4.0 | 0.00 | 0.00 | 0.00 | 30 | 5318.5 |
| 20260905045159 | -31 | 270 | 2.0 | 5.0 | 0.00 | 0.00 | 0.00 | 31 | 5318.5 |
| 20260905044352 | -20 | 270 | 2.0 | 5.0 | 0.00 | 0.00 | 0.00 | 31 | 5318.5 |
| 20260905044149 | -24 | 270 | 4.0 | 5.0 | 0.00 | 0.00 | 0.00 | 31 | 5318.5 |
| 20260905043139 | 715 | 270 | 3.0 | 3.0 | 0.00 | 0.00 | 0.00 | 30 | 1799.1 |
| 20260905042331 | 722 | 270 | 3.0 | 4.0 | 0.00 | 0.00 | 0.00 | 31 | 5318.5 |
| 20260905041724 | 221 | 270 | 2.0 | 2.0 | 0.00 | 0.00 | 0.00 | 30 | 5318.5 |
| 20260905041321 | 276 | 270 | 1.0 | 3.0 | 0.00 | 0.00 | 0.00 | 31 | 5318.5 |
| 20260905040917 | -32 | 270 | 2.0 | 4.0 | 0.00 | 0.00 | 0.00 | 29 | 5318.5 |
| 20260905040512 | -26 | 270 | 2.0 | 4.0 | 0.00 | 0.00 | 0.00 | 30 | 5318.5 |
| 20260905040310 | -30 | 270 | 3.0 | 4.0 | 0.00 | 0.00 | 0.00 | 29 | 5318.5 |
| 20260905035704 | -15 | 270 | 3.0 | 3.0 | 0.00 | 0.00 | 0.00 | 29 | 5318.5 |
| 20260905035300 | -10 | 270 | 3.0 | 4.0 | 0.00 | 0.00 | 0.00 | 29 | 5318.5 |
| 20260905035057 | -14 | 270 | 0.0 | 4.0 | 0.00 | 0.00 | 0.00 | 29 | 5318.5 |
| 20260905034250 | 715 | 270 | 3.0 | 5.0 | 0.00 | 0.00 | 0.00 | 28 | 1799.3 |
| 20260905034049 | 715 | 270 | 2.0 | 3.0 | 0.00 | 0.00 | 0.00 | 28 | 4420.8 |
| 20260905033643 | 715 | 270 | 1.0 | 4.0 | 0.00 | 0.00 | 0.00 | 28 | 4420.7 |
| 20260905033242 | 173 | 270 | 3.0 | 4.0 | 0.00 | 0.00 | 0.00 | 29 | 5318.5 |
| 20260905032633 | 322 | 270 | 1.0 | 4.0 | 0.00 | 0.00 | 0.00 | 28 | 5318.5 |
| 20260905032234 | -27 | 270 | 3.0 | 4.0 | 0.00 | 0.00 | 0.00 | 28 | 5318.5 |
| 20260905031826 | -22 | 270 | 3.0 | 4.0 | 0.00 | 0.00 | 0.00 | 28 | 403.3 |
| 20260905031219 | -31 | 270 | 1.0 | 5.0 | 0.00 | 0.00 | 0.00 | 29 | 5318.5 |
| 20260905030814 | 715 | 270 | 3.0 | 4.0 | 0.00 | 0.00 | 0.00 | 29 | 4420.7 |
| 20260905025402 | 109 | 270 | 2.0 | 3.0 | 0.00 | 0.00 | 0.00 | 29 | 5318.5 |
| 20260905025159 | 203 | 270 | 1.0 | 4.0 | 0.00 | 0.00 | 0.00 | 29 | 5318.5 |
| 20260905024955 | 164 | 270 | 2.0 | 4.0 | 0.00 | 0.00 | 0.00 | 29 | 5318.5 |
| 20260905024154 | 274 | 270 | 4.0 | 5.0 | 0.00 | 0.00 | 0.00 | 28 | 5318.5 |
| 20260905023745 | -32 | 270 | 5.0 | 6.0 | 0.00 | 0.00 | 0.00 | 28 | 5318.5 |
| 20260905023544 | -23 | 270 | 3.0 | 6.0 | 0.00 | 0.00 | 0.00 | 28 | 5318.5 |
| 20260905023339 | -27 | 270 | 3.0 | 4.0 | 0.00 | 0.00 | 0.00 | 28 | 5318.5 |
| 20260905022531 | -15 | 270 | 3.0 | 4.0 | 0.00 | 0.00 | 0.00 | 28 | 5318.5 |
| 20260905021520 | 446 | 270 | 1.0 | 3.0 | 0.00 | 0.00 | 0.00 | 28 | 5318.5 |
| 20260905021319 | 138 | 270 | 2.0 | 5.0 | 0.00 | 0.00 | 0.00 | 28 | 5318.5 |
| 20260905020913 | 193 | 270 | 4.0 | 6.0 | 0.00 | 0.00 | 0.00 | 27 | 5318.5 |
| 20260905020511 | 249 | 270 | 2.0 | 5.0 | 0.00 | 0.00 | 0.00 | 27 | 5321.1 |
| 20260905020307 | 210 | 270 | 2.0 | 6.0 | 0.00 | 0.00 | 0.00 | 28 | 5318.5 |
| 20260905015903 | 265 | 270 | 1.0 | 5.0 | 0.00 | 0.00 | 0.00 | 27 | 5318.5 |
| 20260905015258 | -24 | 270 | 2.0 | 4.0 | 0.00 | 0.00 | 0.00 | 27 | 5318.5 |
| 20260905014247 | -16 | 270 | 2.0 | 5.0 | 0.00 | 0.00 | 0.00 | 26 | 5318.5 |
| 20260905014048 | -75 | 270 | 1.0 | 5.0 | 0.00 | 0.00 | 0.00 | 27 | 5318.5 |
| 20260905013640 | -19 | 270 | 2.0 | 5.0 | 0.00 | 0.00 | 0.00 | 26 | 5318.5 |
| 20260905013239 | 354 | 270 | 4.0 | 8.0 | 0.00 | 0.00 | 0.00 | 26 | 5318.5 |
| 20260905013035 | 129 | 270 | 4.0 | 8.0 | 0.00 | 0.00 | 0.00 | 26 | 5318.5 |
| 20260905012631 | 184 | 270 | 3.0 | 7.0 | 0.00 | 0.00 | 0.00 | 26 | 1714.1 |
| 20260905012226 | 715 | 270 | 4.0 | 4.0 | 0.00 | 0.00 | 0.00 | 26 | 4420.8 |
| 20260905010610 | -19 | 270 | 3.0 | 7.0 | 0.00 | 0.00 | 0.00 | 24 | 5318.5 |
| 20260905010205 | -13 | 270 | 4.0 | 6.0 | 0.00 | 0.00 | 0.00 | 23 | 5318.5 |
| 20260905005558 | -12 | 270 | 1.0 | 5.0 | 0.00 | 0.00 | 0.00 | 24 | 5318.5 |
| 20260905003943 | 230 | 270 | 3.0 | 5.0 | 0.00 | 0.00 | 0.00 | 23 | 5318.5 |
| 20260905003538 | 285 | 270 | 5.0 | 9.0 | 0.00 | 0.00 | 0.00 | 22 | 5318.5 |
| 20260905003339 | 247 | 270 | 6.0 | 9.0 | 0.00 | 0.00 | 0.00 | 22 | 5318.5 |
| 20260905002329 | -20 | 270 | 2.0 | 10.0 | 0.00 | 0.00 | 0.00 | 22 | 5318.5 |
| 20260905001720 | -18 | 270 | 4.0 | 7.0 | 0.00 | 0.00 | 0.00 | 22 | 5318.5 |
| 20260905001518 | 715 | 270 | 5.0 | 7.0 | 0.00 | 0.00 | 0.00 | 22 | 1799.3 |
| 20260905001316 | -31 | 270 | 7.0 | 7.0 | 0.00 | 0.00 | 0.00 | 21 | 5318.5 |
| 20260905000509 | 111 | 270 | 3.0 | 8.0 | 0.00 | 0.00 | 0.00 | 21 | 5318.5 |
| 20260904235905 | 127 | 270 | 5.0 | 6.0 | 0.00 | 0.00 | 0.00 | 20 | 5318.5 |
| 20260904235701 | 221 | 270 | 5.0 | 6.0 | 0.00 | 0.00 | 0.00 | 20 | 5318.5 |
| 20260904235500 | 182 | 270 | 3.0 | 5.0 | 0.00 | 0.00 | 0.00 | 20 | 5318.5 |
| 20260904235255 | 276 | 270 | 4.0 | 5.0 | 0.00 | 0.00 | 0.00 | 20 | 5318.5 |
| 20260904235023 | 715 | 270 | 6.0 | 11.0 | 0.00 | 0.00 | 0.00 | 19 | 4420.8 |
| 20260904234244 | 715 | 270 | 6.0 | 11.0 | 0.00 | 0.00 | 0.00 | 19 | 4420.8 |
| 20260904234044 | -21 | 270 | 6.0 | 7.0 | 0.00 | 0.00 | 0.00 | 19 | 5318.5 |
| 20260904233641 | -15 | 270 | 6.0 | 7.0 | 0.00 | 0.00 | 0.00 | 18 | 5318.5 |
| 20260904233437 | 715 | 270 | 6.0 | 9.0 | 0.00 | 0.00 | 0.00 | 18 | 1799.4 |
| 20260904233032 | -14 | 270 | 4.0 | 10.0 | 0.00 | 0.00 | 0.00 | 18 | 5318.5 |
| 20260904232224 | 715 | 270 | 6.0 | 9.0 | 0.00 | 0.00 | 0.00 | 17 | 1799.4 |
| 20260904231619 | 118 | 270 | 2.0 | 11.0 | 0.00 | 0.00 | 0.00 | 16 | 5318.5 |
| 20260904231213 | 715 | 270 | 8.0 | 11.0 | 0.00 | 0.00 | 0.00 | 16 | 1799.1 |
| 20260904231011 | 715 | 270 | 3.0 | 11.0 | 0.00 | 0.00 | 0.00 | 16 | 1799.4 |
| 20260904230811 | 228 | 270 | 3.0 | 7.0 | 0.00 | 0.00 | 0.00 | 16 | 5318.5 |
| 20260904230405 | 283 | 270 | 6.0 | 10.0 | 0.00 | 0.00 | 0.00 | 16 | 5318.5 |
| 20260904230206 | -27 | 270 | 9.0 | 9.0 | 0.00 | 0.00 | 0.00 | 14 | 5318.5 |
| 20260904225357 | -16 | 270 | 2.0 | 7.0 | 0.00 | 0.00 | 0.00 | 14 | 5318.5 |
| 20260904224951 | -11 | 270 | 4.0 | 7.0 | 0.00 | 0.00 | 0.00 | 14 | 5318.5 |
| 20260904224752 | -15 | 270 | 3.0 | 7.0 | 0.00 | 0.00 | 0.00 | 14 | 1714.1 |
| 20260904223943 | 927 | 270 | 5.0 | 10.0 | 0.00 | 0.00 | 0.00 | 12 | 5318.5 |
| 20260904223536 | 147 | 270 | 6.0 | 10.0 | 0.00 | 0.00 | 0.00 | 12 | 5318.5 |
| 20260904222933 | 715 | 270 | 4.0 | 7.0 | 0.00 | 0.00 | 0.00 | 12 | 1799.4 |
| 20260904222123 | 274 | 270 | 2.0 | 6.0 | 0.00 | 0.00 | 0.00 | 12 | 5318.5 |
| 20260904221516 | -23 | 270 | 2.0 | 2.0 | 0.00 | 0.00 | 0.00 | 11 | 5318.5 |
| 20260904221313 | -27 | 270 | 1.0 | 6.0 | 0.00 | 0.00 | 0.00 | 10 | 5318.5 |
| 20260904221114 | -17 | 270 | 4.0 | 6.0 | 0.00 | 0.00 | 0.00 | 10 | 5318.5 |
| 20260904220505 | -15 | 270 | 4.0 | 5.0 | 0.00 | 0.00 | 0.00 | 10 | 5318.5 |
| 20260904220304 | -65 | 270 | 1.0 | 4.0 | 0.00 | 0.00 | 0.00 | 10 | 5318.5 |
| 20260904215903 | -10 | 270 | 2.0 | 5.0 | 0.00 | 0.00 | 0.00 | 10 | 5318.5 |
| 20260904215253 | 715 | 270 | 3.0 | 5.0 | 0.00 | 0.00 | 0.00 | 10 | 1799.3 |
| 20260904215054 | 998 | 270 | 3.0 | 6.0 | 0.00 | 0.00 | 0.00 | 10 | 5321.1 |
| 20260904214851 | 715 | 270 | 3.0 | 6.0 | 0.00 | 0.00 | 0.00 | 10 | 1799.4 |
| 20260904214445 | 49 | 270 | 5.0 | 6.0 | 0.00 | 0.00 | 0.00 | 10 | 5318.5 |
| 20260904213032 | -27 | 270 | 2.0 | 4.0 | 0.00 | 0.00 | 0.00 | 10 | 5318.5 |
| 20260904212426 | -13 | 270 | 4.0 | 4.0 | 0.00 | 0.00 | 0.00 | 10 | 5318.5 |
| 20260904212021 | -75 | 292 | 3.0 | 5.0 | 0.00 | 0.00 | 0.00 | 10 | 5318.5 |
| 20260904211415 | 743 | 270 | 3.0 | 4.0 | 0.00 | 0.00 | 0.00 | 9 | 5318.5 |
| 20260904211211 | 354 | 270 | 2.0 | 4.0 | 0.00 | 0.00 | 0.00 | 10 | 5318.5 |
| 20260904210809 | 906 | 270 | 3.0 | 5.0 | 0.00 | 0.00 | 0.00 | 9 | 5318.5 |
| 20260904210606 | 715 | 270 | 3.0 | 5.0 | 0.00 | 0.00 | 0.00 | 9 | 4420.7 |
| 20260904210204 | 239 | 270 | 2.0 | 4.0 | 0.00 | 0.00 | 0.00 | 9 | 5318.5 |
| 20260904205800 | 295 | 270 | 2.0 | 4.0 | 0.00 | 0.00 | 0.00 | 9 | 5318.5 |
| 20260904205556 | 256 | 270 | 4.0 | 4.0 | 0.00 | 0.00 | 0.00 | 9 | 5318.5 |
| 20260904205353 | -30 | 270 | 2.0 | 5.0 | 0.00 | 0.00 | 0.00 | 9 | 5318.5 |
| 20260904205151 | 715 | 270 | 2.0 | 5.0 | 0.00 | 0.00 | 0.00 | 9 | 1799.1 |
| 20260904204750 | -28 | 270 | 2.0 | 5.0 | 0.00 | 0.00 | 0.00 | 10 | 5318.5 |
| 20260904204343 | -23 | 270 | 4.0 | 5.0 | 0.00 | 0.00 | 0.00 | 9 | 5318.5 |
| 20260904203938 | -17 | 270 | 4.0 | 4.0 | 0.00 | 0.00 | 0.00 | 9 | 5318.5 |
| 20260904202928 | 262 | 270 | 1.0 | 3.0 | 0.00 | 0.00 | 0.00 | 9 | 5318.5 |
| 20260904202323 | 175 | 270 | 2.0 | 3.0 | 0.00 | 0.00 | 0.00 | 9 | 5318.5 |
| 20260904201717 | 715 | 270 | 1.0 | 2.0 | 0.00 | 0.00 | 0.00 | 9 | 4420.8 |
| 20260904201110 | -31 | 270 | 2.0 | 2.0 | 0.00 | 0.00 | 0.00 | 9 | 5318.5 |
| 20260904200911 | 302 | 270 | 2.0 | 3.0 | 0.00 | 0.00 | 0.00 | 9 | 5318.5 |
| 20260904200707 | -25 | 270 | 1.0 | 3.0 | 0.00 | 0.00 | 0.00 | 9 | 5318.5 |
| 20260904200302 | -20 | 270 | 3.0 | 5.0 | 0.00 | 0.00 | 0.00 | 8 | 5318.5 |
| 20260904195453 | -93 | 0 | 4.0 | 7.0 | 0.00 | 0.00 | 0.00 | 8 | 1714.1 |
| 20260904195251 | -13 | 348 | 5.0 | 7.0 | 0.00 | 0.00 | 0.00 | 8 | 5318.5 |
| 20260904194846 | -77 | 315 | 4.0 | 5.0 | 0.00 | 0.00 | 0.00 | 8 | 5318.5 |
| 20260904194644 | 170 | 315 | 3.0 | 6.0 | 0.00 | 0.00 | 0.00 | 8 | 5318.5 |
| 20260904194046 | 127 | 0 | 3.0 | 4.0 | 0.00 | 0.00 | 0.00 | 7 | 5318.5 |
| 20260904194025 | 293 | 270 | 3.0 | 3.0 | 0.00 | 0.00 | 0.00 | 6 | 5318.5 |
| 20260904194018 | -30 | 270 | 3.0 | 4.0 | 0.00 | 0.00 | 0.00 | 6 | 5318.5 |
| 20260904193836 | 127 | 0 | 3.0 | 4.0 | 0.00 | 0.00 | 0.00 | 7 | 5318.5 |
| 20260904193635 | 714 | 315 | 3.0 | 3.0 | 0.00 | 0.00 | 0.00 | 7 | 4420.8 |
| 20260904193232 | 276 | 315 | 2.0 | 3.0 | 0.00 | 0.00 | 0.00 | 7 | 5318.5 |
| 20260904192624 | 293 | 270 | 3.0 | 3.0 | 0.00 | 0.00 | 0.00 | 6 | 5318.5 |
| 20260904192221 | -30 | 270 | 3.0 | 4.0 | 0.00 | 0.00 | 0.00 | 6 | 5318.5 |
| 20260904192017 | -21 | 270 | 3.0 | 4.0 | 0.00 | 0.00 | 0.00 | 6 | 5318.5 |
| 20260904191818 | -25 | 270 | 4.0 | 4.0 | 0.00 | 0.00 | 0.00 | 6 | 5318.5 |
| 20260904191209 | -10 | 270 | 3.0 | 4.0 | 0.00 | 0.00 | 0.00 | 5 | 5318.5 |
| 20260904190603 | -86 | 270 | 1.0 | 2.0 | 0.00 | 0.00 | 0.00 | 5 | 5318.5 |
| 20260904190159 | 101 | 270 | 2.0 | 3.0 | 0.00 | 0.00 | 0.00 | 5 | 5318.5 |
| 20260904185148 | 715 | 270 | 2.0 | 3.0 | 0.00 | 0.00 | 0.00 | 5 | 4420.8 |
| 20260904184946 | 715 | 270 | 1.0 | 3.0 | 0.00 | 0.00 | 0.00 | 4 | 1799.4 |